Langdon, ND

10:18 PM CST on February 27, 2017 (GMT -0600)
Langdon

Weather History for KD55 - November, 2012

Change the Weather History Date:

Tuesday, November 6, 2012

  Actual Average (KDVL) Record (KDVL)
Temperature  
Mean Temperature 36 °F -  
Max Temperature 41 °F 37 °F 68 °F (1949)
Min Temperature 32 °F 21 °F -8 °F (1991)
Degree Days  
Heating Degree Days 28    
Moisture  
Dew Point 34 °F    
Average Humidity 93    
Maximum Humidity 100    
Minimum Humidity 81    
Precipitation  
Precipitation 0.00 in - - ()
Sea Level Pressure  
Sea Level Pressure 29.86 in    
Wind  
Wind Speed 19 mph (NW)    
Max Wind Speed 29 mph    
Max Gust Speed 36 mph    
Visibility 10 miles    
Events Rain    
Averages and records for this station are not official NWS values.
T = Trace of Precipitation, MM = Missing Value Source: NWS Daily Summary

Daily Weather History Graph

Daily Weather History Graph

Search for Another Location

Airport or City:

Trip Planner

Search our weather history database for the weather conditions in past years. The results will help you decide how hot, cold, wet, or windy it might be!

Date:

Astronomy

Nov. 06, 2012 Rise Set
Actual Time 7:29 AM CST 5:04 PM CST
Civil Twilight 6:55 AM CST 5:38 PM CST
Nautical Twilight 6:17 AM CST 6:15 PM CST
Astronomical Twilight 5:40 AM CST 6:52 PM CST
Moon 11:51 PM CST (11/6) 1:17 PM CST (11/6)
Length of Visible Light 10h 42m
Length of Day
9h 35m
Waning Gibbous, 53% of the Moon is Illuminated
Nov 6
Waning Gibbous
Nov 6
Last Quarter
Nov 13
New
Nov 20
First Quarter
Nov 28
Full

Hourly Weather History & Observations

Time (CST) Temp. Windchill Dew Point Humidity Pressure Visibility Wind Dir Wind Speed Gust Speed Precip Events Conditions
12:15 AM 33.8 °F 22.8 °F 33.8 °F 100% 29.68 in 10.0 mi WNW 18.4 mph - N/A   Clear
12:35 AM 33.8 °F 23.5 °F 33.8 °F 100% 29.68 in 10.0 mi WNW 16.1 mph - N/A   Clear
12:55 AM 33.8 °F 22.8 °F 33.8 °F 100% 29.68 in 10.0 mi WNW 18.4 mph 24.2 mph N/A   Clear
1:15 AM 33.8 °F 22.2 °F 33.8 °F 100% 29.68 in 10.0 mi WNW 20.7 mph 24.2 mph N/A   Clear
1:35 AM 33.8 °F 22.5 °F 32.0 °F 93% 29.68 in 10.0 mi WNW 19.6 mph 26.5 mph N/A   Clear
1:55 AM 33.8 °F 21.6 °F 32.0 °F 93% 29.69 in 10.0 mi WNW 23.0 mph - N/A   Clear
2:15 AM 33.8 °F 21.6 °F 32.0 °F 93% 29.69 in 10.0 mi WNW 23.0 mph 29.9 mph N/A   Clear
2:35 AM 33.8 °F 21.9 °F 32.0 °F 93% 29.70 in 10.0 mi NW 21.9 mph 26.5 mph N/A   Clear
2:55 AM 33.8 °F 22.8 °F 32.0 °F 93% 29.70 in 10.0 mi NW 18.4 mph - N/A   Mostly Cloudy
3:15 AM 35.6 °F 24.5 °F 33.8 °F 93% 29.69 in 10.0 mi WNW 20.7 mph 25.3 mph N/A   Overcast
3:35 AM 35.6 °F 23.7 °F 32.0 °F 87% 29.69 in 10.0 mi WNW 24.2 mph 31.1 mph N/A   Mostly Cloudy
3:55 AM 35.6 °F 23.7 °F 32.0 °F 87% 29.70 in 10.0 mi WNW 24.2 mph 29.9 mph N/A   Partly Cloudy
4:15 AM 35.6 °F 23.4 °F 32.0 °F 87% 29.70 in 10.0 mi WNW 25.3 mph 33.4 mph N/A   Mostly Cloudy
4:35 AM 35.6 °F 23.7 °F 33.8 °F 93% 29.71 in 10.0 mi WNW 24.2 mph 32.2 mph N/A   Overcast
4:55 AM 35.6 °F 24.0 °F 33.8 °F 93% 29.71 in 10.0 mi WNW 23.0 mph 31.1 mph N/A   Overcast
5:15 AM 35.6 °F 24.5 °F 33.8 °F 93% 29.71 in 10.0 mi WNW 20.7 mph 28.8 mph N/A   Overcast
5:35 AM 35.6 °F 23.7 °F 35.6 °F 100% 29.71 in 10.0 mi NW 24.2 mph 33.4 mph N/A   Overcast
5:55 AM 35.6 °F 23.7 °F 35.6 °F 100% 29.72 in 10.0 mi NW 24.2 mph 31.1 mph N/A   Overcast
6:15 AM 35.6 °F 23.2 °F 35.6 °F 100% 29.73 in 10.0 mi NW 26.5 mph 35.7 mph N/A   Overcast
6:35 AM 37.4 °F 25.2 °F 35.6 °F 93% 29.74 in 10.0 mi NW 28.8 mph 34.5 mph N/A   Overcast
6:55 AM 35.6 °F 23.2 °F 35.6 °F 100% 29.75 in 10.0 mi NW 26.5 mph 34.5 mph N/A   Overcast
7:15 AM 35.6 °F 23.2 °F 35.6 °F 100% 29.76 in 10.0 mi NW 26.5 mph 32.2 mph N/A   Overcast
7:35 AM 35.6 °F 24.2 °F 35.6 °F 100% 29.77 in 10.0 mi NW 21.9 mph 28.8 mph N/A   Overcast
7:55 AM 35.6 °F 23.4 °F 35.6 °F 100% 29.78 in 10.0 mi NNW 25.3 mph 33.4 mph N/A   Overcast
8:15 AM 35.6 °F 23.7 °F 35.6 °F 100% 29.80 in 10.0 mi NW 24.2 mph 32.2 mph N/A   Mostly Cloudy
8:35 AM 35.6 °F 23.7 °F 35.6 °F 100% 29.81 in 8.0 mi NW 24.2 mph 34.5 mph N/A Rain Light Rain
8:55 AM 35.6 °F 24.0 °F 35.6 °F 100% 29.82 in 9.0 mi NW 23.0 mph 31.1 mph N/A Rain Light Rain
9:15 AM 37.4 °F 25.9 °F 37.4 °F 100% 29.82 in 10.0 mi NW 25.3 mph 33.4 mph N/A   Overcast
9:35 AM 37.4 °F 26.1 °F 35.6 °F 93% 29.83 in 10.0 mi NW 24.2 mph 33.4 mph N/A   Overcast
9:55 AM 37.4 °F 25.9 °F 35.6 °F 93% 29.84 in 10.0 mi NW 25.3 mph 31.1 mph N/A   Overcast
10:15 AM 37.4 °F 26.6 °F 35.6 °F 93% 29.85 in 10.0 mi NW 21.9 mph 31.1 mph N/A   Overcast
10:35 AM 37.4 °F 26.4 °F 35.6 °F 93% 29.85 in 10.0 mi NW 23.0 mph 35.7 mph N/A   Overcast
10:55 AM 37.4 °F 26.4 °F 35.6 °F 93% 29.86 in 10.0 mi NW 23.0 mph 28.8 mph N/A   Overcast
11:15 AM 37.4 °F 26.6 °F 35.6 °F 93% 29.87 in 10.0 mi NW 21.9 mph 26.5 mph N/A   Overcast
11:35 AM 37.4 °F 26.9 °F 35.6 °F 93% 29.88 in 10.0 mi NW 20.7 mph 26.5 mph N/A   Overcast
11:55 AM 37.4 °F 27.5 °F 35.6 °F 93% 29.88 in 10.0 mi NW 18.4 mph 26.5 mph N/A   Overcast
12:15 PM 37.4 °F 26.9 °F 35.6 °F 93% 29.89 in 10.0 mi NW 20.7 mph 27.6 mph N/A   Overcast
12:35 PM 37.4 °F 27.8 °F 35.6 °F 93% 29.89 in 10.0 mi NNW 17.3 mph 28.8 mph N/A   Overcast
12:55 PM 39.2 °F 29.6 °F 35.6 °F 87% 29.89 in 10.0 mi NNW 19.6 mph - N/A   Overcast
1:15 PM 39.2 °F 29.6 °F 35.6 °F 87% 29.90 in 10.0 mi NNW 19.6 mph 25.3 mph N/A   Overcast
1:35 PM 39.2 °F 29.3 °F 35.6 °F 87% 29.91 in 10.0 mi NW 20.7 mph 25.3 mph N/A   Overcast
1:55 PM 39.2 °F 29.8 °F 35.6 °F 87% 29.92 in 10.0 mi NW 18.4 mph 25.3 mph N/A   Overcast
2:15 PM 39.2 °F 30.2 °F 35.6 °F 87% 29.92 in 10.0 mi NW 17.3 mph - N/A   Overcast
2:35 PM 39.2 °F 30.8 °F 37.4 °F 93% 29.92 in 10.0 mi NW 15.0 mph - N/A   Overcast
2:55 PM 39.2 °F 30.8 °F 35.6 °F 87% 29.93 in 10.0 mi NW 15.0 mph - N/A   Overcast
3:15 PM 41.0 °F 33.5 °F 35.6 °F 81% 29.93 in 10.0 mi NW 13.8 mph 19.6 mph N/A   Overcast
3:35 PM 39.2 °F 30.8 °F 35.6 °F 87% 29.94 in 10.0 mi NW 15.0 mph 21.9 mph N/A   Overcast
3:55 PM 39.2 °F 32.0 °F 35.6 °F 87% 29.94 in 10.0 mi NW 11.5 mph - N/A   Overcast
4:15 PM 41.0 °F 34.3 °F 37.4 °F 87% 29.94 in 10.0 mi NW 11.5 mph - N/A   Mostly Cloudy
4:35 PM 41.0 °F 33.9 °F 35.6 °F 81% 29.95 in 10.0 mi NW 12.7 mph - N/A   Mostly Cloudy
4:55 PM 39.2 °F 32.0 °F 35.6 °F 87% 29.95 in 10.0 mi NNW 11.5 mph - N/A   Scattered Clouds
5:15 PM 37.4 °F 30.3 °F 35.6 °F 93% 29.96 in 10.0 mi NNW 10.4 mph - N/A   Mostly Cloudy
5:35 PM 37.4 °F 30.3 °F 35.6 °F 93% 29.97 in 10.0 mi NNW 10.4 mph - N/A   Overcast
5:55 PM 37.4 °F 29.3 °F 35.6 °F 93% 29.97 in 10.0 mi NW 12.7 mph - N/A   Overcast
6:15 PM 37.4 °F 29.8 °F 33.8 °F 87% 29.98 in 10.0 mi NW 11.5 mph - N/A   Overcast
6:35 PM 37.4 °F 29.3 °F 33.8 °F 87% 29.98 in 10.0 mi NW 12.7 mph 18.4 mph N/A   Overcast
6:55 PM 37.4 °F 28.9 °F 33.8 °F 87% 29.98 in 10.0 mi NW 13.8 mph 19.6 mph N/A   Overcast
7:15 PM 37.4 °F 29.8 °F 33.8 °F 87% 29.98 in 10.0 mi NW 11.5 mph - N/A   Overcast
7:35 PM 37.4 °F 28.9 °F 33.8 °F 87% 29.99 in 10.0 mi NW 13.8 mph - N/A   Overcast
7:55 PM 37.4 °F 29.8 °F 33.8 °F 87% 29.99 in 10.0 mi NW 11.5 mph - N/A   Overcast
8:15 PM 35.6 °F 28.6 °F 33.8 °F 93% 29.99 in 10.0 mi NW 9.2 mph - N/A   Overcast
8:35 PM 35.6 °F 27.5 °F 32.0 °F 87% 30.00 in 10.0 mi NW 11.5 mph - N/A   Overcast
8:55 PM 35.6 °F 28.6 °F 32.0 °F 87% 30.00 in 10.0 mi NNW 9.2 mph - N/A   Overcast
9:15 PM 35.6 °F 28.0 °F 32.0 °F 87% 30.00 in 10.0 mi NW 10.4 mph - N/A   Overcast
9:35 PM 35.6 °F 28.6 °F 32.0 °F 87% 30.00 in 10.0 mi NNW 9.2 mph - N/A   Overcast
9:55 PM 35.6 °F 28.6 °F 32.0 °F 87% 30.00 in 10.0 mi NW 9.2 mph - N/A   Overcast
10:15 PM 35.6 °F 28.0 °F 32.0 °F 87% 30.00 in 10.0 mi NW 10.4 mph - N/A   Mostly Cloudy
10:35 PM 32.0 °F 24.8 °F 32.0 °F 100% 30.00 in 10.0 mi NW 8.1 mph - N/A   Partly Cloudy
10:55 PM 32.0 °F 24.2 °F 32.0 °F 100% 30.01 in 10.0 mi NW 9.2 mph - N/A   Clear
11:15 PM 32.0 °F 24.8 °F 32.0 °F 100% 30.01 in 10.0 mi WNW 8.1 mph - N/A   Clear
11:35 PM 32.0 °F 24.8 °F 32.0 °F 100% 30.01 in 10.0 mi NW 8.1 mph - N/A   Clear
11:55 PM 32.0 °F 25.6 °F 32.0 °F 100% 30.02 in 10.0 mi WNW 6.9 mph - N/A   Clear